| time (UTC) | temp C | wind direction | speed KPH | gust KPH | rain 1hr cm | rain 24hr cm | rain mn cm | humidity % | barometer mb |
| 20260506223536 | 13 | 315 | 1.6 | 16.1 | 0.20 | 0.66 | 0.66 | 96 | 1003.6 |
| 20260506222536 | 13 | 0.0 | 1.6 | 0.20 | 0.66 | 0.66 | 96 | 1003.6 | |
| 20260506221516 | 13 | 0.0 | 3.2 | 0.20 | 0.66 | 0.66 | 96 | 1003.5 | |
| 20260506220516 | 13 | 315 | 1.6 | 6.4 | 0.20 | 0.66 | 0.66 | 96 | 1003.5 |
| 20260506215537 | 13 | 0.0 | 4.8 | 0.13 | 0.58 | 0.58 | 96 | 1003.7 | |
| 20260506214515 | 13 | 0.0 | 3.2 | 0.03 | 0.48 | 0.48 | 96 | 1003.6 | |
| 20260506213516 | 13 | 0.0 | 3.2 | 0.05 | 0.46 | 0.46 | 96 | 1003.8 | |
| 20260506212516 | 13 | 0.0 | 3.2 | 0.08 | 0.46 | 0.46 | 96 | 1003.6 | |
| 20260506211517 | 13 | 0.0 | 4.8 | 0.10 | 0.46 | 0.46 | 96 | 1003.6 | |
| 20260506210516 | 13 | 0.0 | 1.6 | 0.10 | 0.46 | 0.46 | 95 | 1003.8 | |
| 20260506205516 | 13 | 315 | 1.6 | 4.8 | 0.15 | 0.46 | 0.46 | 95 | 1003.7 |
| 20260506204515 | 13 | 315 | 1.6 | 4.8 | 0.18 | 0.46 | 0.46 | 95 | 1003.8 |
| 20260506203516 | 13 | 0.0 | 3.2 | 0.15 | 0.41 | 0.41 | 95 | 1003.8 | |
| 20260506202515 | 13 | 315 | 1.6 | 6.4 | 0.15 | 0.38 | 0.38 | 95 | 1003.9 |
| 20260506201515 | 13 | 0.0 | 1.6 | 0.15 | 0.36 | 0.36 | 95 | 1004.2 | |
| 20260506200515 | 13 | 315 | 1.6 | 9.7 | 0.18 | 0.36 | 0.36 | 95 | 1004.2 |
| 20260506195517 | 13 | 0.0 | 4.8 | 0.13 | 0.30 | 0.30 | 95 | 1004.4 | |
| 20260506194515 | 13 | 0.0 | 4.8 | 0.13 | 0.28 | 0.28 | 95 | 1004.4 | |
| 20260506193515 | 13 | 315 | 1.6 | 6.4 | 0.10 | 0.25 | 0.25 | 95 | 1004.4 |
| 20260506192515 | 13 | 315 | 1.6 | 6.4 | 0.10 | 0.23 | 0.23 | 95 | 1004.7 |
| 20260506191535 | 13 | 0.0 | 1.6 | 0.08 | 0.20 | 0.20 | 94 | 1004.8 | |
| 20260506190537 | 13 | 315 | 1.6 | 6.4 | 0.05 | 0.18 | 0.18 | 94 | 1004.6 |
| 20260506185515 | 14 | 0.0 | 3.2 | 0.08 | 0.18 | 0.18 | 94 | 1004.8 | |
| 20260506184515 | 14 | 0.0 | 3.2 | 0.08 | 0.15 | 0.15 | 93 | 1004.8 | |
| 20260506183535 | 14 | 0.0 | 3.2 | 0.13 | 0.15 | 0.15 | 93 | 1004.9 | |
| 20260506182515 | 15 | 0.0 | 3.2 | 0.10 | 0.13 | 0.13 | 93 | 1005.0 | |
| 20260506181515 | 15 | 0.0 | 3.2 | 0.13 | 0.13 | 0.13 | 92 | 1004.9 | |
| 20260506180555 | 15 | 0.0 | 3.2 | 0.13 | 0.13 | 0.13 | 92 | 1004.9 | |
| 20260506175515 | 15 | 0.0 | 4.8 | 0.10 | 0.10 | 0.10 | 92 | 1005.2 | |
| 20260506174515 | 15 | 0.0 | 1.6 | 0.08 | 0.08 | 0.08 | 91 | 1005.4 | |
| 20260506173515 | 15 | 0.0 | 3.2 | 0.03 | 0.03 | 0.03 | 90 | 1005.7 | |
| 20260506172535 | 16 | 0.0 | 1.6 | 0.03 | 0.03 | 0.03 | 89 | 1005.9 | |
| 20260506171536 | 16 | 315 | 1.6 | 4.8 | 0.00 | 0.00 | 0.00 | 86 | 1005.9 |
| 20260506170515 | 16 | 0.0 | 3.2 | 0.00 | 0.00 | 0.00 | 83 | 1006.1 | |
| 20260506165515 | 17 | 0.0 | 3.2 | 0.00 | 0.00 | 0.00 | 80 | 1006.0 | |
| 20260506164515 | 17 | 315 | 1.6 | 8.0 | 0.00 | 0.00 | 0.00 | 78 | 1006.0 |
| 20260506163515 | 17 | 0.0 | 4.8 | 0.00 | 0.00 | 0.00 | 77 | 1006.0 | |
| 20260506162515 | 17 | 0.0 | 3.2 | 0.00 | 0.00 | 0.00 | 78 | 1006.2 | |
| 20260506161515 | 17 | 0.0 | 3.2 | 0.00 | 0.00 | 0.00 | 78 | 1006.4 | |
| 20260506160515 | 17 | 315 | 1.6 | 3.2 | 0.00 | 0.00 | 0.00 | 79 | 1006.5 |
| 20260506155515 | 17 | 315 | 1.6 | 3.2 | 0.00 | 0.00 | 0.00 | 79 | 1006.7 |
| 20260506154515 | 16 | 0.0 | 3.2 | 0.00 | 0.00 | 0.00 | 80 | 1006.9 | |
| 20260506153515 | 16 | 0.0 | 6.4 | 0.00 | 0.00 | 0.00 | 80 | 1006.9 | |
| 20260506152515 | 16 | 315 | 1.6 | 4.8 | 0.00 | 0.00 | 0.00 | 79 | 1007.2 |
| 20260506151515 | 16 | 0.0 | 3.2 | 0.00 | 0.00 | 0.00 | 80 | 1007.2 | |
| 20260506150515 | 16 | 0.0 | 1.6 | 0.00 | 0.00 | 0.00 | 81 | 1007.3 | |
| 20260506145517 | 16 | 68 | 1.6 | 11.3 | 0.00 | 0.00 | 0.00 | 81 | 1007.3 |
| 20260506144517 | 16 | 68 | 1.6 | 8.0 | 0.00 | 0.00 | 0.00 | 81 | 1007.3 |
| 20260506143517 | 16 | 68 | 1.6 | 4.8 | 0.00 | 0.00 | 0.00 | 81 | 1007.3 |
| 20260506142517 | 16 | 0.0 | 4.8 | 0.00 | 0.00 | 0.00 | 81 | 1007.2 | |
| 20260506141515 | 16 | 68 | 1.6 | 9.7 | 0.00 | 0.00 | 0.00 | 81 | 1007.3 |
| 20260506140517 | 16 | 68 | 1.6 | 4.8 | 0.00 | 0.00 | 0.00 | 82 | 1007.3 |
| 20260506135516 | 16 | 68 | 3.2 | 8.0 | 0.00 | 0.00 | 0.00 | 82 | 1007.0 |
| 20260506134517 | 16 | 0.0 | 1.6 | 0.00 | 0.00 | 0.00 | 82 | 1007.1 | |
| 20260506133517 | 16 | 68 | 1.6 | 4.8 | 0.00 | 0.00 | 0.00 | 82 | 1007.1 |
| 20260506132517 | 16 | 68 | 1.6 | 8.0 | 0.00 | 0.00 | 0.00 | 82 | 1007.0 |
| 20260506131517 | 16 | 135 | 1.6 | 9.7 | 0.00 | 0.00 | 0.00 | 82 | 1007.3 |
| 20260506130517 | 16 | 135 | 1.6 | 4.8 | 0.00 | 0.00 | 0.00 | 83 | 1007.3 |
| 20260506125517 | 15 | 0.0 | 3.2 | 0.00 | 0.00 | 0.00 | 85 | 1007.4 | |
| 20260506124517 | 15 | 135 | 1.6 | 4.8 | 0.00 | 0.00 | 0.00 | 85 | 1007.5 |
| 20260506123517 | 15 | 135 | 1.6 | 4.8 | 0.00 | 0.00 | 0.00 | 86 | 1007.6 |
| 20260506122517 | 15 | 135 | 1.6 | 6.4 | 0.00 | 0.00 | 0.00 | 86 | 1007.7 |
| 20260506121516 | 14 | 0.0 | 3.2 | 0.00 | 0.00 | 0.00 | 87 | 1007.6 | |
| 20260506120517 | 14 | 0.0 | 3.2 | 0.00 | 0.00 | 0.00 | 87 | 1007.8 | |
| 20260506115517 | 14 | 0.0 | 3.2 | 0.00 | 0.00 | 0.00 | 88 | 1007.6 | |
| 20260506114517 | 13 | 135 | 1.6 | 4.8 | 0.00 | 0.00 | 0.00 | 88 | 1007.6 |
| 20260506113537 | 13 | 135 | 1.6 | 3.2 | 0.00 | 0.00 | 0.00 | 88 | 1007.8 |
| 20260506112517 | 13 | 0.0 | 3.2 | 0.00 | 0.00 | 0.00 | 88 | 1007.7 | |
| 20260506111516 | 13 | 135 | 1.6 | 4.8 | 0.00 | 0.00 | 0.00 | 89 | 1007.8 |
| 20260506110517 | 13 | 135 | 1.6 | 6.4 | 0.00 | 0.00 | 0.00 | 90 | 1008.1 |
| 20260506105517 | 13 | 0.0 | 4.8 | 0.00 | 0.00 | 0.00 | 90 | 1008.1 | |
| 20260506104536 | 13 | 68 | 1.6 | 3.2 | 0.00 | 0.00 | 0.00 | 90 | 1008.2 |
| 20260506103517 | 13 | 0.0 | 3.2 | 0.00 | 0.00 | 0.00 | 90 | 1008.1 | |
| 20260506102516 | 12 | 68 | 1.6 | 3.2 | 0.00 | 0.00 | 0.00 | 91 | 1007.7 |
| 20260506101537 | 12 | 68 | 1.6 | 3.2 | 0.00 | 0.00 | 0.00 | 91 | 1008.0 |
| 20260506100516 | 12 | 0.0 | 1.6 | 0.00 | 0.00 | 0.00 | 91 | 1007.7 | |
| 20260506095516 | 12 | 0.0 | 3.2 | 0.00 | 0.00 | 0.00 | 90 | 1007.8 | |
| 20260506094516 | 12 | 68 | 1.6 | 3.2 | 0.00 | 0.00 | 0.00 | 90 | 1007.9 |
| 20260506093516 | 12 | 68 | 1.6 | 3.2 | 0.00 | 0.00 | 0.00 | 89 | 1007.9 |
| 20260506092543 | 12 | 68 | 3.2 | 12.9 | 0.00 | 0.00 | 0.00 | 89 | 1007.9 |
| 20260506091518 | 12 | 68 | 1.6 | 3.2 | 0.00 | 0.00 | 0.00 | 89 | 1008.0 |
| 20260506090517 | 12 | 0.0 | 3.2 | 0.00 | 0.00 | 0.00 | 88 | 1008.0 | |
| 20260506085516 | 12 | 68 | 1.6 | 9.7 | 0.00 | 0.00 | 0.00 | 88 | 1007.9 |
| 20260506084516 | 12 | 0.0 | 1.6 | 0.00 | 0.00 | 0.00 | 88 | 1008.1 | |
| 20260506083516 | 12 | 135 | 1.6 | 4.8 | 0.00 | 0.00 | 0.00 | 88 | 1008.2 |
| 20260506082536 | 12 | 0.0 | 3.2 | 0.00 | 0.00 | 0.00 | 88 | 1008.1 | |
| 20260506081516 | 12 | 0.0 | 3.2 | 0.00 | 0.00 | 0.00 | 88 | 1008.2 | |
| 20260506080516 | 12 | 0.0 | 1.6 | 0.00 | 0.00 | 0.00 | 87 | 1008.2 | |
| 20260506073516 | 13 | 0.0 | 1.6 | 0.00 | 0.00 | 0.00 | 86 | 1008.3 | |
| 20260506072516 | 13 | 0.0 | 3.2 | 0.00 | 0.00 | 0.00 | 86 | 1008.4 | |
| 20260506071516 | 13 | 0.0 | 1.6 | 0.00 | 0.00 | 0.00 | 84 | 1008.3 | |
| 20260506070516 | 13 | 0.0 | 3.2 | 0.00 | 0.00 | 0.00 | 84 | 1008.4 | |
| 20260506062516 | 13 | 0.0 | 3.2 | 0.00 | 0.00 | 0.00 | 81 | 1008.3 | |
| 20260506061516 | 13 | 135 | 1.6 | 3.2 | 0.00 | 0.00 | 0.00 | 81 | 1008.2 |
| 20260506060516 | 14 | 135 | 1.6 | 3.2 | 0.00 | 0.00 | 0.00 | 80 | 1008.3 |
| 20260506050516 | 14 | 0.0 | 1.6 | 0.00 | 0.00 | 0.00 | 77 | 1008.6 | |
| 20260506044517 | 15 | 68 | 1.6 | 3.2 | 0.00 | 0.00 | 0.00 | 77 | 1008.6 |
| 20260506043537 | 15 | 0.0 | 1.6 | 0.00 | 0.00 | 0.00 | 76 | 1008.6 | |
| 20260506042516 | 15 | 68 | 1.6 | 4.8 | 0.00 | 0.00 | 0.00 | 75 | 1008.6 |
| 20260506041516 | 15 | 68 | 1.6 | 3.2 | 0.00 | 0.00 | 0.00 | 75 | 1008.7 |
| 20260506040516 | 15 | 0.0 | 3.2 | 0.00 | 0.00 | 0.00 | 75 | 1008.6 | |
| 20260506035537 | 15 | 68 | 1.6 | 4.8 | 0.00 | 0.00 | 0.00 | 75 | 1008.6 |
| 20260506034516 | 15 | 68 | 1.6 | 4.8 | 0.00 | 0.00 | 0.00 | 74 | 1008.6 |
| 20260506033536 | 15 | 68 | 1.6 | 4.8 | 0.00 | 0.00 | 0.00 | 74 | 1008.5 |
| 20260506032516 | 15 | 68 | 1.6 | 4.8 | 0.00 | 0.00 | 0.00 | 73 | 1008.5 |
| 20260506031516 | 15 | 68 | 1.6 | 4.8 | 0.00 | 0.00 | 0.00 | 73 | 1008.5 |
| 20260506030517 | 15 | 0.0 | 4.8 | 0.00 | 0.00 | 0.00 | 73 | 1008.6 | |
| 20260506025516 | 15 | 68 | 1.6 | 3.2 | 0.00 | 0.00 | 0.00 | 72 | 1008.6 |
| 20260506024517 | 15 | 0.0 | 3.2 | 0.00 | 0.00 | 0.00 | 71 | 1008.5 | |
| 20260506023516 | 16 | 68 | 1.6 | 3.2 | 0.00 | 0.00 | 0.00 | 70 | 1008.4 |
| 20260506022516 | 16 | 68 | 1.6 | 3.2 | 0.00 | 0.00 | 0.00 | 70 | 1008.3 |
| 20260506021517 | 16 | 68 | 1.6 | 3.2 | 0.00 | 0.00 | 0.00 | 70 | 1008.2 |
| 20260506020516 | 16 | 68 | 1.6 | 8.0 | 0.00 | 0.00 | 0.00 | 70 | 1008.2 |
| 20260506015516 | 16 | 68 | 1.6 | 4.8 | 0.00 | 0.00 | 0.00 | 70 | 1008.1 |
| 20260506014516 | 16 | 68 | 1.6 | 8.0 | 0.00 | 0.00 | 0.00 | 69 | 1008.1 |
| 20260506013516 | 16 | 68 | 1.6 | 6.4 | 0.00 | 0.00 | 0.00 | 69 | 1008.0 |
| 20260506012536 | 16 | 68 | 1.6 | 3.2 | 0.00 | 0.00 | 0.00 | 68 | 1007.9 |
| 20260506011516 | 17 | 0.0 | 3.2 | 0.00 | 0.00 | 0.00 | 67 | 1007.9 | |
| 20260506010516 | 17 | 68 | 1.6 | 8.0 | 0.00 | 0.00 | 0.00 | 65 | 1007.8 |
| 20260506005515 | 17 | 315 | 1.6 | 6.4 | 0.00 | 0.00 | 0.00 | 65 | 1007.8 |
| 20260506004516 | 18 | 0.0 | 4.8 | 0.00 | 0.00 | 0.00 | 64 | 1007.7 | |
| 20260506003517 | 18 | 0.0 | 3.2 | 0.00 | 0.00 | 0.00 | 63 | 1007.4 | |
| 20260506002516 | 18 | 135 | 1.6 | 6.4 | 0.00 | 0.00 | 0.00 | 62 | 1007.0 |
| 20260506001516 | 18 | 135 | 1.6 | 6.4 | 0.00 | 0.00 | 0.00 | 61 | 1006.7 |
| 20260506000516 | 19 | 135 | 1.6 | 4.8 | 0.00 | 0.00 | 0.00 | 61 | 1006.4 |
| 20260505235516 | 19 | 135 | 1.6 | 4.8 | 0.00 | 0.00 | 0.00 | 59 | 1006.3 |
| 20260505234516 | 20 | 135 | 1.6 | 6.4 | 0.00 | 0.00 | 0.00 | 59 | 1006.2 |
| 20260505233516 | 20 | 158 | 1.6 | 4.8 | 0.00 | 0.00 | 0.00 | 58 | 1006.0 |
| 20260505232516 | 20 | 135 | 3.2 | 9.7 | 0.00 | 0.00 | 0.00 | 57 | 1005.9 |
| 20260505231536 | 20 | 0.0 | 3.2 | 0.00 | 0.00 | 0.00 | 56 | 1005.5 | |
| 20260505230516 | 21 | 315 | 3.2 | 11.3 | 0.00 | 0.00 | 0.00 | 55 | 1005.5 |
| 20260505225516 | 21 | 315 | 1.6 | 8.0 | 0.00 | 0.00 | 0.00 | 54 | 1005.4 |
| 20260505224516 | 21 | 315 | 1.6 | 8.0 | 0.00 | 0.00 | 0.00 | 54 | 1005.3 |